Regional Weather Roundup
Issued by NWS

Home | Current Version | Previous Version | Text Only | Print | Product List | Glossary On
Versions: 1 2 3 4 5 6 7 8 9 10 11 12 13 14 15 16 17 18 19 20 21 22 23 24 25 26 27 28 29 30 31 32 33 34 35 36 37 38 39 40 41 42 43 44 45 46 47 48 49
000
ASUS42 KFFC 040803
RWRGA
WEATHER ROUNDUP FOR GEORGIA
NATIONAL WEATHER SERVICE PEACHTREE CITY GA
400 AM EDT MON MAY 04 2015

NOTE: "FAIR" INDICATES FEW OR NO CLOUDS BELOW 12,000 FEET WITH NO
SIGNIFICANT WEATHER AND/OR OBSTRUCTIONS TO VISIBILITY.

* = USE WITH CAUTION. THE STATIONS MARKED WITH AN ASTERISK MAY NOT
REPORT WEATHER SUCH AS PRECIPITATION, FOG, OR THUNDER AND ARE NOT
QUALITY CONTROLLED BY NWS.

THE REMARK "TC" DENOTES TEMPERATURE READING IN DEGREES CELSIUS.

GAZ001>058-040900-
NORTH GEORGIA

CITY           SKY/WX    TMP DP  RH WIND       PRES   REMARKS
ATLANTA        CLEAR     62  50  64 CALM      30.19F
ATHENS         CLEAR     55  52  89 S3        30.20S
CHAMBLEE       CLEAR     56  51  84 CALM      30.19F
PEACHTREE CITY CLEAR     52  51  97 CALM      30.20F
ROME           CLEAR     57  50  77 N3        30.17F
WEST ATLANTA   CLEAR     54  51  90 CALM      30.19F
GAINESVILLE    CLEAR     58  50  75 CALM      30.22S
CARTERSVILLE   CLEAR     51  49  92 CALM      30.19F


CITY           SKY/WX    TMP DP  RH WIND       PRES   REMARKS
DALTON*        CLEAR     52  52 100 CALM      30.18F
MARIETTA       CLEAR     56  52  85 CALM      30.19S
BLAIRSVILLE*     N/A     47  40  78 CALM      30.23S
$$

GAZ059>098-102>109-040900-
CENTRAL GEORGIA

CITY           SKY/WX    TMP DP  RH WIND       PRES   REMARKS
AUGUSTA-BUSH   CLEAR     53  50  89 CALM      30.22R
AUGUSTA-DANIEL CLEAR     63  49  60 S3        30.22S
COLUMBUS       CLEAR     58  54  86 S5        30.19R
MACON          CLEAR     60  52  74 CALM      30.20S
ROBINS AFB     CLEAR     57  55  92 E2        30.19F


CITY           SKY/WX    TMP DP  RH WIND       PRES   REMARKS
LAGRANGE*      PTCLDY    56  55  98 CALM      30.19S
SYLVANIA*      CLEAR     54  54  99 CALM      30.22F
MILLEDGEVILLE* CLEAR     55  55 100 CALM      30.20F
$$

GAZ099>101-110>166-040900-
SOUTH GEORGIA

CITY           SKY/WX    TMP DP  RH WIND       PRES   REMARKS
SAVANNAH       CLEAR     57  54  89 CALM      30.22S
VALDOSTA       CLEAR     55  52  89 CALM      30.20S
ALMA           CLEAR     53  51  93 CALM      30.21S
ST SIMONS      CLEAR     61  57  87 CALM      30.21S
FT STEWART     CLEAR     55  51  89 CALM      30.20S
ALBANY         MOCLDY    59  53  80 CALM      30.22S
HUNTER AFB     CLEAR     56  56 100 CALM      30.19S
MOODY AFB      CLEAR     56  52  84 CALM      30.19S
BRUNSWICK      CLEAR     54  52  94 CALM      30.22S


CITY           SKY/WX    TMP DP  RH WIND       PRES   REMARKS
BAINBRIDGE*    CLEAR     64  55  72 CALM      30.20S
MOULTRIE*      CLEAR     59  54  82 CALM      30.21S
VIDALIA*       CLEAR     57  54  88 CALM      30.22S
WAYCROSS*      CLEAR     58  56  94 CALM      30.21S
DOUGLAS*       CLEAR     59  55  88 CALM      30.22S
$$


USA.gov is the U.S. government's official web portal to all federal, state and local government web resources and services.